Weather History for KOGD - July, 2013

Change the Weather History Date:

Wednesday, July 31, 2013

  Actual Average Record
Temperature  
Mean Temperature 82 °F -  
Max Temperature 96 °F 91 °F 100 °F (1989)
Min Temperature 70 °F 59 °F 49 °F (1977)
Cooling Degree Days 18    
Growing Degree Days 32 (Base 50)    
Moisture  
Dew Point 39 °F    
Average Humidity 22    
Maximum Humidity 33    
Minimum Humidity 10    
Precipitation  
Precipitation 0.00 in - - ()
Sea Level Pressure  
Sea Level Pressure 29.92 in    
Wind  
Wind Speed 9 mph (SSE)    
Max Wind Speed 13 mph    
Max Gust Speed 21 mph    
Visibility 10 miles    
Events      
Averages and records for this station are not official NWS values.
T = Trace of Precipitation, MM = Missing Value Source: NWS Daily Summary

Daily Weather History Graph

Daily Weather History Graph

Search for Another Location

Airport or City:

Trip Planner

Search our weather history database for the weather conditions in past years. The results will help you decide how hot, cold, wet, or windy it might be!

Date:

Astronomy

Jul. 31, 2013 Rise Set
Actual Time 6:22 AM MDT 8:45 PM MDT
Civil Twilight 5:51 AM MDT 9:16 PM MDT
Nautical Twilight 5:13 AM MDT 9:54 PM MDT
Astronomical Twilight 4:30 AM MDT 10:37 PM MDT
Moon 1:20 AM MDT (7/31) 4:05 PM MDT (7/31)
Length of Visible Light 15h 24m
Length of Day
14h 22m
Waning Crescent, 31% of the Moon is Illuminated
Jul 31
Waning Crescent
Aug 6
New
Aug 14
First Quarter
Aug 20
Full
Aug 28
Last Quarter

Hourly Weather History & Observations

Time (MDT) Temp. Dew Point Humidity Pressure Visibility Wind Dir Wind Speed Gust Speed Precip Events Conditions
12:53 AM 75.0 °F 42.1 °F 31% 29.96 in 10.0 mi South 10.4 mph - N/A   Clear
1:53 AM 73.0 °F 41.0 °F 31% 29.95 in 10.0 mi South 10.4 mph - N/A   Clear
2:53 AM 73.0 °F 39.9 °F 30% 29.95 in 10.0 mi South 8.1 mph - N/A   Clear
3:53 AM 73.0 °F 39.9 °F 30% 29.94 in 10.0 mi South 9.2 mph - N/A   Clear
4:53 AM 71.1 °F 39.9 °F 32% 29.96 in 10.0 mi South 9.2 mph - N/A   Clear
5:53 AM 70.0 °F 39.9 °F 33% 29.97 in 10.0 mi SSE 9.2 mph - N/A   Clear
6:53 AM 71.1 °F 39.9 °F 32% 29.99 in 10.0 mi South 12.7 mph - N/A   Clear
7:53 AM 72.0 °F 41.0 °F 33% 30.00 in 10.0 mi South 11.5 mph - N/A   Clear
8:53 AM 77.0 °F 43.0 °F 30% 30.01 in 10.0 mi SSE 9.2 mph - N/A   Clear
9:53 AM 82.0 °F 44.1 °F 26% 30.01 in 10.0 mi SSE 8.1 mph - N/A   Clear
10:53 AM 86.0 °F 45.0 °F 24% 30.01 in 10.0 mi SE 8.1 mph - N/A   Clear
11:53 AM 91.0 °F 39.9 °F 17% 29.99 in 10.0 mi SSW 8.1 mph 17.3 mph N/A   Clear
12:53 PM 91.9 °F 39.0 °F 16% 29.96 in 10.0 mi Variable 3.5 mph 20.7 mph N/A   Clear
1:53 PM 93.0 °F 39.0 °F 15% 29.95 in 10.0 mi WSW 8.1 mph - N/A   Clear
2:53 PM 93.9 °F 37.9 °F 14% 29.92 in 10.0 mi Calm Calm - N/A   Clear
3:53 PM 95.0 °F 37.9 °F 14% 29.90 in 10.0 mi ENE 3.5 mph - N/A   Clear
4:53 PM 95.0 °F 39.0 °F 14% 29.88 in 10.0 mi South 5.8 mph - N/A   Partly Cloudy
5:53 PM 95.0 °F 34.0 °F 12% 29.86 in 10.0 mi SSW 9.2 mph - N/A   Clear
6:53 PM 95.0 °F 30.9 °F 10% 29.83 in 10.0 mi SSE 9.2 mph - N/A   Clear
7:53 PM 93.0 °F 34.0 °F 12% 29.81 in 10.0 mi SE 6.9 mph - N/A   Clear
8:53 PM 84.9 °F 39.0 °F 20% 29.81 in 10.0 mi SSE 4.6 mph - N/A   Clear
9:53 PM 82.9 °F 37.9 °F 20% 29.80 in 10.0 mi South 9.2 mph - N/A   Clear
10:53 PM 80.1 °F 37.0 °F 21% 29.80 in 10.0 mi SSE 10.4 mph - N/A   Clear
11:53 PM 79.0 °F 37.0 °F 22% 29.79 in 10.0 mi South 10.4 mph - N/A   Clear